Weather Roundup
Issued by NWS

Home | Current Version | Previous Version | Graphics & Text | Print | Product List | Glossary Off
Versions: 1 2 3 4 5 6 7 8 9 10 11 12 13 14 15 16 17 18 19 20 21 22 23 24 25 26 27 28 29 30 31 32 33 34 35 36 37 38 39 40 41 42 43 44 45 46 47 48 49 50

303
NZUS93 KARX 160259
HRRWXR

CURRENT HOURLY OBSERVATIONS ACROSS
MUCH OF THE UPPER MISSISSIPPI VALLEY
NATIONAL WEATHER SERVICE LA CROSSE WI
1000 PM CDT SUN OCT 15 2017


...SOUTHEAST MINNESOTA...


CITY           SKY/WX    TMP DP  RH WIND       PRES   REMARKS
ROCHESTER      MOCLDY    42  38  85 SW7       30.22S
ROCHESTER/MAYO CLOUDY    47  32  57 SW6       30.22R
WINONA         CLOUDY    46  39  76 CALM      30.22S
AUSTIN         MOCLDY    43  36  75 SW6       30.22S
ALBERT LEA     MOCLDY    50  39  66 SW6       30.22S
DODGE CENTER   PTCLDY    43  34  70 SW5       30.21S
PRESTON        CLOUDY    43  36  75 SW5       30.22S
OWATONNA       MOCLDY    45  36  70 SW3       30.21S
FARIBAULT      PTCLDY    43  37  81 CALM      30.22R
$$

...ELSEWHERE IN MINNESOTA...


CITY           SKY/WX    TMP DP  RH WIND       PRES   REMARKS
MINNEAPOLIS    CLOUDY    47  40  76 CALM      30.21R
INTNL FALLS    CLEAR     34  30  85 S3        30.08S
DULUTH         PTCLDY    36  32  85 W7        30.13S WCI  30
RED WING       CLOUDY    45  39  81 N3        30.20R
REDWOOD FALLS  CLEAR     43  36  76 SW5       30.22S
MANKATO        CLOUDY    45  38  76 W6        30.23R
WORTHINGTON    CLEAR     41  34  76 SW8       30.26R
FAIRMONT       CLEAR     45  36  70 W8        30.25R
$$

...SOUTHWEST WISCONSIN...


CITY           SKY/WX    TMP DP  RH WIND       PRES   REMARKS
LA CROSSE      CLOUDY    48  39  71 S5        30.22F
PRAIRIE DU CHI CLOUDY    41  39  93 CALM      30.25S
BOSCOBEL       CLOUDY    43  40  89 CALM      30.26R
LONE ROCK      PTCLDY    39  37  93 CALM      30.25R FOG
PLATTEVILLE    CLEAR     42  41  97 SW5       30.25S
FORT MC COY    CLOUDY    36  36  99 CALM      30.24S
MAUSTON-NEW LI MOCLDY    43  39  85 CALM      30.22R
VIROQUA        CLOUDY    44  41  90 W5        30.23R
WIS DELLS      PTCLDY    40  38  91 CALM      30.23R
$$

...ELSEWHERE IN WISCONSIN...


CITY           SKY/WX    TMP DP  RH WIND       PRES   REMARKS
MILWAUKEE      PTCLDY    49  40  71 W9        30.22R
MADISON        MOCLDY    46  40  79 CALM      30.24R
GREEN BAY      MOCLDY    46  44  93 SW3       30.19R
EAU CLAIRE     NOT AVBL
BLACK RVR FLS  NOT AVBL
MEDFORD        MOCLDY    40  34  77 W3        30.17S
WAUSAU         PTCLDY    43  36  76 W8        30.17R
WIS RAPIDS     PTCLDY    42  39  89 W6        30.21S
MARSHFIELD     PTCLDY    40  36  86 W6        30.18S
RICE LAKE      CLOUDY    44  35  69 CALM      30.20S
$$

...NORTHEAST IOWA...


CITY           SKY/WX    TMP DP  RH WIND       PRES   REMARKS
WATERLOO       CLEAR     40  35  83 CALM      30.26S
DUBUQUE        CLEAR     39  36  89 SW3       30.27R
DECORAH        CLOUDY    45  39  81 CALM      30.23S
MASON CITY     CLOUDY    48  35  60 SW9       30.26R
CHARLES CITY   CLOUDY    46  36  66 SW3       30.25S
OELWEIN        MOCLDY    41  37  87 SW7       30.27R
$$

...ELSEWHERE IN IOWA...


CITY           SKY/WX    TMP DP  RH WIND       PRES   REMARKS
DES MOINES     CLEAR     47  35  63 S3        30.29S
IOWA CITY      CLEAR     43  39  86 CALM      30.31R
FORT DODGE     CLEAR     43  35  73 SW5       30.28R
MARSHALLTOWN   CLEAR     41  34  76 S3        30.28R
CEDAR RAPIDS   CLEAR     38  38 100 CALM      30.28R
$$

...NORTHERN ILLINOIS...


CITY           SKY/WX    TMP DP  RH WIND       PRES   REMARKS
CHICAGO-OHARE  MOCLDY    50  41  71 NW10      30.24R
CHICAGO-MIDWAY PTCLDY    50  42  74 NW10      30.24R
MOLINE         CLEAR     43  38  82 CALM      30.29R
ROCKFORD       PTCLDY    45  39  79 W6        30.28R
PEORIA         CLEAR     47  41  80 CALM      30.31R
$$

NOTE: "FAIR" INDICATES FEW OR NO CLOUDS BELOW 12,000 FEET WITH NO
SIGNIFICANT WEATHER AND/OR OBSTRUCTIONS TO VISIBILITY. WIND
SPEEDS ARE IN MILES-PER-HOUR.




USA.gov is the U.S. government's official web portal to all federal, state and local government web resources and services.